Regional Weather Roundup
Issued by NWS

Home | Current Version | Previous Version | Graphics & Text | Print | Product List | Glossary Off
Versions: 1 2 3 4 5 6 7 8 9 10 11 12 13 14 15 16 17 18 19 20 21 22 23 24 25 26 27 28 29 30 31 32 33 34 35 36 37 38 39 40 41 42 43 44 45 46 47 48 49 50

364
ASUS43 KMKX 022211
RWRWI

WISCONSIN REGIONAL WEATHER ROUNDUP
NATIONAL WEATHER SERVICE MILWAUKEE/SULLIVAN WI
400 PM CST FRI DEC 02 2016

NOTE: "FAIR" INDICATES FEW OR NO CLOUDS BELOW 12,000 FEET WITH NO
SIGNIFICANT WEATHER AND/OR OBSTRUCTIONS TO VISIBILITY.

WIZ001-002-006>008-014>016-023>028-022300-
NORTHWEST WISCONSIN

CITY           SKY/WX    TMP DP  RH WIND       PRES   REMARKS
SUPERIOR ARPT  CLOUDY    31  24  74 CALM      30.25R
ASHLAND        CLOUDY    30  24  78 W8        30.24R WCI  22
HAYWARD        CLOUDY    28  21  75 VRB5      30.22R WCI  23
SIREN          CLOUDY    30  23  76 W5        30.24S WCI  25
CUMBERLAND     CLOUDY    30  23  74 NW3       30.22R
RICE LAKE      CLOUDY    31  24  75 W5        30.24R WCI  26
CHETEK         CLOUDY    31  24  76 NW3       30.23R
LADYSMITH      CLOUDY    31  25  77 W7        30.23R WCI  24
EAU CLAIRE     CLOUDY    32  24  72 NW3       30.23R
MENOMONIE      CLOUDY    32  25  74 W3        30.25R
NEW RICHMOND   CLOUDY    31  25  77 W5        30.24S WCI  26
OSCEOLA        CLOUDY    32  25  77 NW5       30.28R WCI  27
$$

WIZ003>005-009-010-017-018-022300-
NORTH CENTRAL WISCONSIN

CITY           SKY/WX    TMP DP  RH WIND       PRES   REMARKS
MANITOWISH WTR CLOUDY    29  28  98 W5        30.17S WCI  24
ARBOR VITAE    CLOUDY    32  28  87 CALM      30.17S
WOODRUFF       CLOUDY    32  28  87 CALM      30.17S
RHINELANDER    CLOUDY    31  27  85 NW5       30.18R WCI  26
EAGLE RIVER    CLOUDY    30  28  92 CALM      30.16R
LAND O LAKES   CLOUDY    30  28  93 W5        30.18R WCI  25
PHILLIPS       CLOUDY    29  25  84 NW3       30.18S
TOMAHAWK       CLOUDY    30  25  81 W5        30.19S WCI  25
MEDFORD        CLOUDY    30  24  78 NW5       30.18S WCI  25
MERRILL        CLOUDY    31  26  80 NW3       30.20R
$$

WIZ029-030-035-036-043>047-022300-
CENTRAL WISCONSIN

CITY           SKY/WX    TMP DP  RH WIND       PRES   REMARKS
WAUSAU         CLOUDY    32  24  72 NW6       30.18R WCI  26
MOSINEE        CLOUDY    30  27  86 NW6       30.20S WCI  24
MARSHFIELD     CLOUDY    30  21  69 N6        30.19S WCI  24
STEVENS POINT  CLOUDY    30  22  72 NW6       30.21S WCI  24
WAUPACA        CLOUDY    34  25  69 NW5       30.21S WCI  30
WAUTOMA        CLOUDY    32  23  69 W10       30.23R WCI  24
WISC RAPIDS    CLOUDY    32  23  69 NW6       30.22S WCI  26
CAMP DOUGLAS   CLOUDY    31  23  71 NW7       30.23R WCI  24
$$

WIZ011>013-019>022-031-037>040-048>050-022300-
NORTHEAST WISCONSIN

CITY           SKY/WX    TMP DP  RH WIND       PRES   REMARKS
ANTIGO         CLOUDY    31  26  81 NW9       30.17S WCI  23
SHAWANO        CLOUDY    36  27  68 W6        30.20R WCI  31
OCONTO         CLOUDY    36  28  72 NW6       30.18S WCI  31
STURGEON BAY   CLOUDY    36  28  73 W8        30.18R WCI  30
GREEN BAY      CLOUDY    36  29  75 W9        30.20R WCI  29
MANITOWOC      CLOUDY    35  27  72 W8        30.20R WCI  29
APPLETON       CLOUDY    34  23  64 W8        30.19R WCI  27
CLINTONVILLE   CLOUDY    34  25  69 NW8       30.20S WCI  27
OSHKOSH        CLOUDY    33  24  69 W8        30.20R WCI  26
$$

WIZ032>034-041-042-053>061-022300-
SOUTHWEST WISCONSIN

CITY           SKY/WX    TMP DP  RH WIND       PRES   REMARKS
LA CROSSE      CLOUDY    35  23  61 W6        30.26R WCI  30
SPARTA         CLOUDY    32  24  71 W8        30.26R WCI  25
VIROQUA        CLOUDY    31  24  78 NW6       30.23R WCI  25
BOSCOBEL       CLOUDY    35  22  58 W7        30.28R WCI  29
PRAIRIE DU CHI CLOUDY    33  22  65 NW9       30.28R WCI  25
PLATTEVILLE    CLOUDY    33  26  76 W9        30.26R WCI  25
$$

WIZ056-057-062-063-064-067-068-022300-
SOUTH CENTRAL WISCONSIN

CITY           SKY/WX    TMP DP  RH WIND       PRES   REMARKS
REEDSBURG      CLOUDY    31  23  71 W8        30.24R WCI  24
BARABOO/DELLS  CLOUDY    32  23  69 N6        30.23R WCI  26
LONE ROCK      CLOUDY    33  22  63 NW7       30.27R WCI  27
MINERAL POINT  CLOUDY    32  27  80 W7        30.24R WCI  26
MADISON        CLOUDY    32  22  66 N6        30.24R WCI  26
MIDDLETON      CLOUDY    33  25  72 W9        30.24R WCI  25
WATERTOWN      CLOUDY    33  24  70 W5        30.22R WCI  28
MONROE         CLOUDY    34  25  69 W9        30.23R WCI  26
JANESVILLE     CLOUDY    36  25  64 MISG      30.23R
$$

WIZ051-052-058>065-066-070>072-022300-
SOUTHEAST WISCONSIN

CITY           SKY/WX    TMP DP  RH WIND       PRES   REMARKS
MILWAUKEE      CLOUDY    35  22  58 W9        30.22R WCI  28
WAUKESHA       CLOUDY    32  23  69 W8        30.22R WCI  25
MILWAUKEE/TIMM CLOUDY    34  21  60 NW8       30.23R WCI  27
RACINE         CLOUDY    35  23  61 NW5       30.23S WCI  31
BURLINGTON     CLOUDY    33  24  70 CALM      30.23R
KENOSHA        CLOUDY    35  24  64 NW8       30.23R WCI  29
FOND DU LAC    CLOUDY    33  22  63 NW9       30.21R WCI  25
SHEBOYGAN      CLOUDY    34  26  72 W8        30.21R WCI  27
WEST BEND      CLOUDY    32  27  80 NW6       30.21S WCI  26
JUNEAU         CLOUDY    32  24  72 NW6       30.22S WCI  26
$$

LSZ147-162-022300-
LAKE SUPERIOR

STATION/POSITION TIME  TEMP    WIND        PRES    WAVE
                       AIR SEA DIR/SP/G            HT/PER
                 (UTC) (F)     (DEG/KT/KT) (MB)    (FT/S)
DEVILS ISLAND    2200   33     240/ 10/ 13 1024.1R
PORT WING        2140   32     280/ 10/ 12 1023.7R
SAXON HARBOR     2130   32     230/  4/  7 1023.4R
$$

LMZ867-665-643>646-022300-
LAKE MICHIGAN

STATION/POSITION TIME  TEMP    WIND        PRES    WAVE
                       AIR SEA DIR/SP/G            HT/PER
                 (UTC) (F)     (DEG/KT/KT) (MB)    (FT/S)
CHAMBERS ISLAND  2140   37     290/  5/ 10 1021.0R
NORTHPORT PIER   2130   37     290/  8/ 12 1021.0R
SISTER BAY       2108   38     320/ 15/ 17   N/A
ALGOMA LAKESHORE 2121          320/  9/ 12   N/A
KEWAUNEE LAKESHO 2118   36     300/  6/  9 1021.4
SHEBOYGAN LAKESH 2200   35     310/  6/  8 1023.4R
PORT WASHINGTON  2140   35     320/  6/ 12 1024.0R
MILWAUKEE LAKESH 2120   35     320/  6/  8   N/A
S MID LAKE BUOY  2150   38 49  320/ 12/ 16 1023.0R   3/ 6
KENOSHA   LAKESH 2200   35     320/  7/ 11 1023.7
$$

TC  - TEMPERATURE IN CELSIUS
VSB - VISIBILITY IN STATUTE MILES
WCI - WIND CHILL INDEX
HX  - HEAT INDEX





USA.gov is the U.S. government's official web portal to all federal, state and local government web resources and services.